2020-079P

Last updated on Thu Dec 03 2020 00:02:03 GMT+0000 (Coordinated Universal Time)

1 46840U 20079P 20337.53153288 .00004547 00000-0 15062-3 0 9997 2 46840 97.2665 49.2389 0008963 165.1510 309.7527 15.31763180 4034
UTC large
Height (km)
Speed (km/s)
/
Latitude / Longitude
Inclination (degrees)
Orbital Period (minutes)
Azimuth
Elevation
Range (km)
Doppler Factor

Next 0 passes for location: London (51.5072 / 0.1276)

Sorry there are no passes over London.